When you browse on this site, cookies collect data to enhance your experience and personalize the content and advertising you see.
Visit our Privacy Policy to learn more. By continuing to use the site, you agree to this use of cookies and data.
  • In Österreich
  • Länderverzeichnis
  • Für 7 Tage
  • Wassertemperatur
  • Wetterkarte
  • News
  • Widgets
  • user-avatar
    Anmelden

    Stündliche Wetter Qala i Naw

    Heute, 31 Mai, Sonntag

    Zeit Temperatur Niederschläge Wind Luftdruck Luftfeuchtigkeit
    00:00 +24°C° 0 mm 1 m/S 680 mmHg 15%
    01:00 +23°C° 0 mm 1 m/S 680 mmHg 15%
    02:00 +22°C° 0 mm 1 m/S 680 mmHg 16%
    03:00 +21°C° 0 mm 1 m/S 679 mmHg 16%
    04:00 +19°C° 0 mm 0 m/S 679 mmHg 16%
    05:00 +21°C° 0 mm 0 m/S 680 mmHg 14%
    06:00 +23°C° 0 mm 0 m/S 681 mmHg 12%
    07:00 +25°C° 0 mm 0 m/S 682 mmHg 10%
    08:00 +28°C° 0 mm 1 m/S 681 mmHg 9%
    09:00 +29°C° 0 mm 2 m/S 681 mmHg 8%
    10:00 +31°C° 0 mm 2 m/S 681 mmHg 8%
    11:00 +33°C° 0 mm 3 m/S 681 mmHg 7%
    12:00 +34°C° 0 mm 3 m/S 681 mmHg 6%
    13:00 +35°C° 0 mm 4 m/S 681 mmHg 6%
    14:00 +35°C° 0 mm 5 m/S 681 mmHg 6%
    15:00 +35°C° 0 mm 5 m/S 681 mmHg 6%
    16:00 +36°C° 0 mm 6 m/S 681 mmHg 6%
    17:00 +34°C° 0 mm 5 m/S 681 mmHg 7%
    18:00 +32°C° 0 mm 4 m/S 680 mmHg 9%
    19:00 +30°C° 0 mm 4 m/S 680 mmHg 10%
    20:00 +28°C° 0 mm 3 m/S 680 mmHg 11%
    21:00 +27°C° 0 mm 2 m/S 680 mmHg 12%
    22:00 +25°C° 0 mm 1 m/S 681 mmHg 13%
    23:00 +24°C° 0 mm 1 m/S 680 mmHg 14%

    Morgen, 1 Juni, Montag

    Zeit Temperatur Niederschläge Wind Luftdruck Luftfeuchtigkeit
    00:00 +24°C° 0 mm 1 m/S 680 mmHg 14%
    01:00 +23°C° 0 mm 1 m/S 679 mmHg 15%
    02:00 +22°C° 0 mm 1 m/S 679 mmHg 16%
    03:00 +19°C° 0 mm 0 m/S 679 mmHg 16%
    04:00 +19°C° 0 mm 0 m/S 679 mmHg 16%
    05:00 +21°C° 0 mm 0 m/S 680 mmHg 14%
    06:00 +24°C° 0 mm 0 m/S 680 mmHg 12%
    07:00 +26°C° 0 mm 0 m/S 681 mmHg 10%
    08:00 +29°C° 0 mm 1 m/S 681 mmHg 9%
    09:00 +31°C° 0 mm 2 m/S 682 mmHg 8%
    10:00 +32°C° 0 mm 2 m/S 682 mmHg 8%
    11:00 +34°C° 0 mm 3 m/S 682 mmHg 7%
    12:00 +35°C° 0 mm 4 m/S 682 mmHg 7%
    13:00 +36°C° 0 mm 4 m/S 682 mmHg 6%
    14:00 +36°C° 0 mm 5 m/S 681 mmHg 6%
    15:00 +36°C° 0 mm 5 m/S 681 mmHg 6%
    16:00 +36°C° 0 mm 5 m/S 681 mmHg 6%
    17:00 +34°C° 0 mm 4 m/S 681 mmHg 8%
    18:00 +33°C° 0 mm 3 m/S 681 mmHg 10%
    19:00 +30°C° 0 mm 2 m/S 681 mmHg 11%
    20:00 +29°C° 0 mm 2 m/S 680 mmHg 13%
    21:00 +27°C° 0 mm 1 m/S 680 mmHg 14%
    22:00 +26°C° 0 mm 1 m/S 680 mmHg 16%
    23:00 +25°C° 0 mm 1 m/S 680 mmHg 16%

    übermorgen, 2 Juni, Dienstag

    Zeit Temperatur Niederschläge Wind Luftdruck Luftfeuchtigkeit
    00:00 +25°C° 0 mm 1 m/S 679 mmHg 17%
    01:00 +22°C° 0 mm 0 m/S 679 mmHg 18%
    02:00 +21°C° 0 mm 0 m/S 679 mmHg 18%
    03:00 +21°C° 0 mm 0 m/S 679 mmHg 19%
    04:00 +20°C° 0 mm 0 m/S 678 mmHg 19%
    05:00 +23°C° 0 mm 0 m/S 679 mmHg 16%
    06:00 +25°C° 0 mm 0 m/S 680 mmHg 14%
    07:00 +28°C° 0 mm 0 m/S 681 mmHg 11%
    08:00 +31°C° 0 mm 1 m/S 681 mmHg 10%
    09:00 +32°C° 0 mm 2 m/S 681 mmHg 9%
    10:00 +35°C° 0 mm 3 m/S 681 mmHg 8%
    11:00 +36°C° 0 mm 4 m/S 681 mmHg 8%
    12:00 +37°C° 0 mm 4 m/S 681 mmHg 7%
    13:00 +37°C° 0 mm 5 m/S 681 mmHg 6%
    14:00 +39°C° 0 mm 5 m/S 681 mmHg 6%
    15:00 +39°C° 0 mm 6 m/S 681 mmHg 6%
    16:00 +39°C° 0 mm 6 m/S 680 mmHg 6%
    17:00 +36°C° 0 mm 5 m/S 680 mmHg 7%
    18:00 +34°C° 0 mm 4 m/S 680 mmHg 9%
    19:00 +31°C° 0 mm 3 m/S 680 mmHg 10%
    20:00 +30°C° 0 mm 2 m/S 680 mmHg 11%
    21:00 +29°C° 0 mm 2 m/S 680 mmHg 13%
    22:00 +27°C° 0 mm 1 m/S 680 mmHg 15%
    23:00 +26°C° 0 mm 1 m/S 679 mmHg 15%

    3 Juni, Mittwoch

    Zeit Temperatur Niederschläge Wind Luftdruck Luftfeuchtigkeit
    00:00 +26°C° 0 mm 1 m/S 679 mmHg 15%
    01:00 +25°C° 0 mm 1 m/S 678 mmHg 15%
    02:00 +24°C° 0 mm 1 m/S 678 mmHg 16%
    03:00 +24°C° 0 mm 1 m/S 678 mmHg 16%
    04:00 +23°C° 0 mm 1 m/S 678 mmHg 17%
    05:00 +26°C° 0 mm 1 m/S 679 mmHg 15%
    06:00 +28°C° 0 mm 1 m/S 679 mmHg 13%
    07:00 +30°C° 0 mm 1 m/S 680 mmHg 11%
    08:00 +32°C° 0 mm 1 m/S 680 mmHg 10%
    09:00 +34°C° 0 mm 2 m/S 680 mmHg 9%
    10:00 +36°C° 0 mm 3 m/S 680 mmHg 8%
    11:00 +37°C° 0 mm 4 m/S 680 mmHg 8%
    12:00 +39°C° 0 mm 5 m/S 680 mmHg 7%
    13:00 +40°C° 0 mm 5 m/S 680 mmHg 7%
    14:00 +40°C° 0 mm 6 m/S 680 mmHg 7%
    15:00 +40°C° 0 mm 6 m/S 680 mmHg 7%
    16:00 +40°C° 0 mm 7 m/S 679 mmHg 7%
    17:00 +38°C° 0 mm 6 m/S 679 mmHg 8%
    18:00 +36°C° 0 mm 5 m/S 679 mmHg 9%
    19:00 +34°C° 0 mm 3 m/S 679 mmHg 11%
    20:00 +31°C° 0 mm 3 m/S 679 mmHg 12%
    21:00 +30°C° 0 mm 2 m/S 679 mmHg 14%
    22:00 +28°C° 0 mm 1 m/S 679 mmHg 16%
    23:00 +28°C° 0 mm 1 m/S 678 mmHg 16%

    4 Juni, Donnerstag

    Zeit Temperatur Niederschläge Wind Luftdruck Luftfeuchtigkeit
    00:00 +27°C° 0 mm 1 m/S 678 mmHg 17%
    01:00 +26°C° 0 mm 1 m/S 678 mmHg 18%
    02:00 +26°C° 0 mm 1 m/S 678 mmHg 18%
    03:00 +25°C° 0 mm 1 m/S 677 mmHg 19%
    04:00 +24°C° 0 mm 1 m/S 677 mmHg 20%
    05:00 +27°C° 0 mm 1 m/S 678 mmHg 18%
    06:00 +29°C° 0 mm 1 m/S 679 mmHg 15%
    07:00 +31°C° 0 mm 1 m/S 679 mmHg 13%
    08:00 +34°C° 0 mm 2 m/S 680 mmHg 11%
    09:00 +35°C° 0 mm 3 m/S 680 mmHg 10%
    10:00 +37°C° 0 mm 4 m/S 680 mmHg 8%
    11:00 +39°C° 0 mm 5 m/S 680 mmHg 8%
    12:00 +40°C° 0 mm 6 m/S 680 mmHg 7%
    13:00 +41°C° 0 mm 7 m/S 680 mmHg 7%
    14:00 +41°C° 0 mm 7 m/S 680 mmHg 7%
    15:00 +41°C° 0 mm 7 m/S 680 mmHg 6%
    16:00 +41°C° 0 mm 7 m/S 680 mmHg 6%
    17:00 +39°C° 0 mm 6 m/S 680 mmHg 7%
    18:00 +38°C° 0 mm 6 m/S 680 mmHg 8%
    19:00 +35°C° 0 mm 5 m/S 680 mmHg 9%
    20:00 +34°C° 0 mm 4 m/S 680 mmHg 11%
    21:00 +31°C° 0 mm 3 m/S 680 mmHg 12%
    22:00 +30°C° 0 mm 2 m/S 680 mmHg 13%
    23:00 +29°C° 0 mm 2 m/S 680 mmHg 14%

    5 Juni, Freitag

    Zeit Temperatur Niederschläge Wind Luftdruck Luftfeuchtigkeit
    00:00 +29°C° 0 mm 2 m/S 680 mmHg 14%
    01:00 +28°C° 0 mm 2 m/S 680 mmHg 15%
    02:00 +28°C° 0 mm 2 m/S 679 mmHg 16%
    03:00 +27°C° 0 mm 2 m/S 679 mmHg 17%
    04:00 +26°C° 0 mm 1 m/S 679 mmHg 18%
    05:00 +28°C° 0 mm 1 m/S 680 mmHg 16%
    06:00 +30°C° 0 mm 1 m/S 681 mmHg 14%
    07:00 +32°C° 0 mm 1 m/S 681 mmHg 13%
    08:00 +35°C° 0 mm 3 m/S 682 mmHg 12%
    09:00 +36°C° 0 mm 4 m/S 682 mmHg 11%
    10:00 +39°C° 0 mm 6 m/S 682 mmHg 10%
    11:00 +40°C° 0 mm 7 m/S 682 mmHg 9%
    12:00 +41°C° 0 mm 8 m/S 682 mmHg 9%
    13:00 +42°C° 0 mm 9 m/S 682 mmHg 8%
    14:00 +42°C° 0 mm 9 m/S 682 mmHg 8%
    15:00 +42°C° 0 mm 9 m/S 681 mmHg 8%
    16:00 +42°C° 0 mm 10 m/S 681 mmHg 8%
    17:00 +40°C° 0 mm 8 m/S 681 mmHg 9%
    18:00 +38°C° 0 mm 7 m/S 681 mmHg 10%
    19:00 +36°C° 0 mm 6 m/S 681 mmHg 11%
    20:00 +34°C° 0 mm 5 m/S 681 mmHg 12%
    21:00 +33°C° 0 mm 4 m/S 681 mmHg 14%
    22:00 +32°C° 0 mm 4 m/S 681 mmHg 15%
    23:00 +30°C° 0 mm 3 m/S 681 mmHg 17%
    Mehr zeigen